Tracking 18795 objects as of 24-August-2017
HD Live streaming from Space Station
objects crossing your sky now

SL-16 DEB

Track SL-16 DEB now!
10-day predictions


NORAD ID: 24303
Int'l Code: 1996-051G
Perigee: 821.2 km
Apogee: 925.2 km
Inclination: 71.1 °
Period: 102.3 minutes
Semi major axis: 7244 km
RCS: 0.4797 m2 (medium)
Launch date: September 4, 1996
Source: Commonwealth of Independent States (former USSR) (CIS)
Launch site: TYURATAM MISSILE AND SPACE COMPLEX (TTMTR)

Note: This is SATELLITE DEBRIS
Your satellite tracking list
Your tracking list is empty





NASA's NSSDC Master Catalog

Two Line Element Set (TLE):
1 24303U 96051G   17235.86720226 +.00000148 +00000-0 +11156-3 0  9994
2 24303 071.1055 200.4185 0071805 213.7136 171.6694 14.08047450077479
Source of the keplerian elements: AFSPC